軌道要素
Epoch 2013 May 28.0 TT = JDT 2456440.5
T 2013 May 30.16644 TT MPC
q 0.9482606 (2000.0) P Q
z +0.0125523 Peri. 171.33238 +0.48957143 +0.68022320
+/-0.0000408 Node 125.90841 -0.83494785 +0.54605976
e 0.9880971 Incl. 42.34132 -0.25136010 -0.48899401
From 49 observations 2013 May 18-July 7, mean residual 0".5.
|